Hourly Data Report for May 11, 2018

DRYDEN REGIONAL
ONTARIO
Current Station Operator: NAVCAN

49°49'39.000" N
92°44'39.000" W
412.70 m
6032125
71527
YHD

Download Data

Hourly Data (May 2018)
Hourly Data Report for May 11, 2018
TIME
LST
Temp Definition
°C
Dew Point Definition
°C
Rel Hum Definition
%
Precip. Amount Definition
mm

Wind Dir Definition
10's deg

Wind Spd Definition
km/h
Visibility Definition
km
Stn Press Definition
kPa
Hmdx Definition


Wind Chill Definition


Weather Definition


00:00 0.6 -4.4 69 0.0   0 16.1 97.16     LegendNANA
01:00 0.9 -9.5 46 0.0 16 8 16.1 97.16     LegendNANA
02:00 -0.1 -3.8 76 0.0 6 5 16.1 97.16   -2 LegendNANA
03:00 -1.0 -4.1 80 0.0 7 5 16.1 97.12   -3 LegendNANA
04:00 -1.7 -3.4 88 0.0 5 5 16.1 97.12   -4 LegendNANA
05:00 -2.0 -3.1 92 0.0 6 8 16.1 97.08   -5 LegendNANA
06:00 -0.2 -2.7 83 0.0 5 8 16.1 97.09   -3 LegendNANA
07:00 3.0 -4.5 58 0.0 5 5 16.1 97.12     LegendNANA
08:00 6.2 -9.8 31 0.0 23 5 16.1 97.15     LegendNANA
09:00 8.2 -10.7 25 0.0 26 9 16.1 97.16     LegendNANA
10:00 9.2 -12.1 21 0.0 LegendMM 9 16.1 97.14     LegendNANA
11:00 10.2 -11.6 20 0.0 LegendMM 9 16.1 97.10     LegendNANA
12:00 11.0 -11.3 20 0.0 30 8 16.1 97.03     LegendNANA
13:00 12.5 -10.3 19 0.0 24 13 16.1 96.99     LegendNANA
14:00 13.1 -10.6 18 0.0 25 8 16.1 96.96     LegendNANA
15:00 14.1 -10.4 17 0.0 24 13 16.1 96.90     LegendNANA
16:00 13.7 -10.3 18 0.0 34 5 16.1 96.86     LegendNANA
17:00 13.9 -10.3 18 0.0 36 11 16.1 96.86     LegendNANA
18:00 13.4 -9.8 19 0.0 29 8 16.1 96.87     LegendNANA
19:00 11.7 -6.6 27 0.0 6 5 16.1 96.92     LegendNANA
20:00 10.6 -7.5 27 0.0 7 5 16.1 96.95     LegendNANA
21:00 9.3 -7.0 31 0.0 18 8 16.1 97.00     LegendNANA
22:00 9.2 -6.6 32 0.0   0 16.1 97.04     LegendNANA
23:00 8.1 -5.8 37 0.0 23 5 16.1 97.04     LegendNANA

Notes on Data Quality.

Legend

  • E = Estimated
  • M = Missing
  • NA = Not Available*
  • [empty] = Indicates an unobserved value
Date modified: